Weather History for Seoul E AB, South Korea

Change the Weather History Date:

Sunday, November 17, 2013

  Actual Average Record
Temperature  
Mean Temperature 42 °F -  
Max Temperature 46 °F 43 °F 60 °F (2011)
Min Temperature 39 °F 25 °F 30 °F (1998)
Degree Days  
Heating Degree Days 22    
Moisture  
Dew Point 29 °F    
Average Humidity 59    
Maximum Humidity 93    
Minimum Humidity 34    
Precipitation  
Precipitation 0.00 in - - ()
Sea Level Pressure  
Sea Level Pressure 29.94 in    
Wind  
Wind Speed 7 mph ()    
Max Wind Speed 17 mph    
Max Gust Speed 29 mph    
Visibility 6.0 miles    
Events      
Averages and records for this station are not official NWS values.
T = Trace of Precipitation, MM = Missing Value Source: Averaged Metar Reports

Daily Weather History Graph

Daily Weather History Graph

Search for Another Location

Airport:

Trip Planner

Search our weather history database for the weather conditions in past years. The results will help you decide how hot, cold, wet, or windy it might be!

Date:

Astronomy

Nov. 17, 2013 Rise Set
Actual Time 7:12 AM KST 5:19 PM KST
Civil Twilight 6:44 AM KST 5:47 PM KST
Nautical Twilight 6:13 AM KST 6:19 PM KST
Astronomical Twilight 5:42 AM KST 6:50 PM KST
Moon 5:10 PM KST (11/17) 6:33 AM KST (11/17)
Length of Visible Light 11h 02m
Length of Day
10h 06m
Full, 100% of the Moon is Illuminated
Nov 17
Full
Nov 18
Full
Nov 26
Last Quarter
Dec 3
New
Dec 10
First Quarter

Hourly Weather History & Observations

Time (KST) Temp. Windchill Dew Point Humidity Pressure Visibility Wind Dir Wind Speed Gust Speed Precip Events Conditions
1:00 AM 44.6 °F - 41.0 °F 87% 29.88 in 5.0 mi West 2.3 mph - N/A   Mostly Cloudy
2:00 AM 42.8 °F 40.1 °F 41.0 °F 93% 29.87 in 3.7 mi South 4.6 mph - N/A   Mostly Cloudy
3:00 AM 42.8 °F 40.1 °F 41.0 °F 93% 29.87 in - South 4.6 mph - N/A   Mostly Cloudy
4:00 AM 42.8 °F - 41.0 °F 93% 29.86 in - SW 2.3 mph - N/A   Mostly Cloudy
5:00 AM 42.8 °F - 41.0 °F 93% 29.86 in - South 2.3 mph - N/A   Mostly Cloudy
6:00 AM 46.4 °F 42.9 °F 41.0 °F 81% 29.87 in 5.0 mi WNW 6.9 mph - N/A   Mostly Cloudy
7:00 AM 44.6 °F 40.2 °F 37.4 °F 76% 29.89 in 6.2 mi WNW 8.1 mph - N/A   Mostly Cloudy
8:00 AM 44.6 °F 39.7 °F 35.6 °F 71% 29.91 in 6.2 mi West 9.2 mph - N/A   Mostly Cloudy
9:00 AM 44.6 °F 38.8 °F 33.8 °F 66% 29.94 in 6.2 mi West 11.5 mph 23.0 mph N/A   Mostly Cloudy
10:00 AM 46.4 °F 39.5 °F 30.2 °F 53% 29.96 in 6.2 mi WNW 17.3 mph 28.8 mph N/A   Mostly Cloudy
11:00 AM 46.4 °F 39.5 °F 26.6 °F 46% 29.97 in 6.2 mi WNW 17.3 mph 28.8 mph N/A   Mostly Cloudy
12:00 PM 46.4 °F 39.5 °F 24.8 °F 43% 29.96 in 6.2 mi West 17.3 mph 28.8 mph N/A   Mostly Cloudy
1:00 PM 44.6 °F 39.2 °F 26.6 °F 49% 29.95 in 6.2 mi NW 10.4 mph - N/A   Mostly Cloudy
2:00 PM 46.4 °F 41.1 °F 24.8 °F 43% 29.94 in 6.2 mi NW 11.5 mph 23.0 mph N/A   Mostly Cloudy
3:00 PM 44.6 °F 38.8 °F 23.0 °F 43% 29.94 in 6.2 mi WNW 11.5 mph 23.0 mph N/A   Mostly Cloudy
4:00 PM 44.6 °F 38.8 °F 19.4 °F 37% 29.95 in 6.2 mi WNW 11.5 mph 23.0 mph N/A   Mostly Cloudy
5:00 PM 44.6 °F 39.7 °F 19.4 °F 37% 29.96 in 6.2 mi WNW 9.2 mph 23.0 mph N/A   Scattered Clouds
6:00 PM 42.8 °F 36.6 °F 15.8 °F 34% 29.98 in 6.2 mi WNW 11.5 mph 24.2 mph N/A   Partly Cloudy
7:00 PM 41.0 °F 34.3 °F 19.4 °F 42% 29.99 in 6.2 mi WNW 11.5 mph 23.0 mph N/A   Partly Cloudy
8:00 PM 41.0 °F 34.7 °F 19.4 °F 42% 30.00 in 6.2 mi WNW 10.4 mph 23.0 mph N/A   Partly Cloudy
9:00 PM 39.2 °F 32.0 °F 19.4 °F 45% 30.01 in 6.2 mi WNW 11.5 mph 23.0 mph N/A   Partly Cloudy
10:00 PM 39.2 °F 35.0 °F 21.2 °F 49% 30.01 in 6.2 mi WNW 5.8 mph 17.3 mph N/A   Scattered Clouds
11:00 PM 39.2 °F 32.5 °F 21.2 °F 49% 30.00 in 6.2 mi WNW 10.4 mph 21.9 mph N/A   Scattered Clouds